Burnet, TX

1:18 PM CDT on July 22, 2017 (GMT -0500)
Burnet Municipal-Craddock

Weather History for KBMQ - January, 2014

Change the Weather History Date:

Tuesday, January 7, 2014

  Actual Average Record
Temperature  
Mean Temperature 32 °F -  
Max Temperature 45 °F 57 °F 77 °F (2006)
Min Temperature 19 °F 37 °F 17 °F (2017)
Degree Days  
Heating Degree Days 33    
Moisture  
Dew Point 9 °F    
Average Humidity 41    
Maximum Humidity 71    
Minimum Humidity 19    
Precipitation  
Precipitation 0.00 in - - ()
Sea Level Pressure  
Sea Level Pressure 30.47 in    
Wind  
Wind Speed 6 mph (South)    
Max Wind Speed 15 mph    
Max Gust Speed 24 mph    
Visibility 10 miles    
Events      
Averages and records for this station are not official NWS values.
T = Trace of Precipitation, MM = Missing Value Source: NWS Daily Summary

Daily Weather History Graph

Daily Weather History Graph

Search for Another Location

Airport or City:

Trip Planner

Search our weather history database for the weather conditions in past years. The results will help you decide how hot, cold, wet, or windy it might be!

Date:

Astronomy

Jan. 07, 2014 Rise Set
Actual Time 7:31 AM CST 5:47 PM CST
Civil Twilight 7:05 AM CST 6:13 PM CST
Nautical Twilight 6:35 AM CST 6:43 PM CST
Astronomical Twilight 6:06 AM CST 7:12 PM CST
Moon 11:51 AM CST (1/7) No Moon Set
Length of Visible Light 11h 08m
Length of Day
10h 15m
Waxing Crescent, 46% of the Moon is Illuminated
Jan 7
Waxing Crescent
Jan 7
First Quarter
Jan 15
Full
Jan 23
Last Quarter
Jan 30
New

Hourly Weather History & Observations

Time (CST) Temp. Windchill Dew Point Humidity Pressure Visibility Wind Dir Wind Speed Gust Speed Precip Events Conditions
12:53 AM 23.0 °F - 12.0 °F 63% 30.61 in 10.0 mi Calm Calm - N/A   Clear
1:53 AM 23.0 °F - 12.0 °F 63% 30.58 in 10.0 mi Calm Calm - N/A   Clear
2:53 AM 21.9 °F 17.2 °F 12.9 °F 68% 30.58 in 10.0 mi South 3.5 mph - N/A   Clear
3:53 AM 23.0 °F 17.0 °F 12.0 °F 63% 30.59 in 10.0 mi SSW 4.6 mph - N/A   Clear
4:53 AM 21.0 °F 16.2 °F 12.0 °F 68% 30.59 in 10.0 mi SW 3.5 mph - N/A   Clear
5:53 AM 19.9 °F - 10.9 °F 68% 30.60 in 10.0 mi Calm Calm - N/A   Clear
6:53 AM 19.0 °F - 10.9 °F 71% 30.59 in 10.0 mi Calm Calm - N/A   Clear
7:53 AM 19.0 °F 13.9 °F 10.9 °F 71% 30.58 in 7.0 mi South 3.5 mph - N/A   Clear
8:53 AM 25.0 °F 19.3 °F 12.0 °F 58% 30.59 in 10.0 mi SSW 4.6 mph - N/A   Clear
9:53 AM 28.9 °F 21.9 °F 9.0 °F 43% 30.59 in 10.0 mi South 6.9 mph - N/A   Clear
10:53 AM 33.1 °F 23.9 °F 7.0 °F 34% 30.58 in 10.0 mi South 12.7 mph - N/A   Clear
11:53 AM 37.0 °F 30.4 °F 8.1 °F 30% 30.52 in 10.0 mi South 9.2 mph - N/A   Clear
12:53 PM 42.1 °F 36.6 °F 6.1 °F 23% 30.46 in 10.0 mi South 9.2 mph 18.4 mph N/A   Clear
1:53 PM 44.1 °F 37.7 °F 5.0 °F 20% 30.42 in 10.0 mi South 12.7 mph 20.7 mph N/A   Clear
2:53 PM 45.0 °F 38.9 °F 5.0 °F 19% 30.40 in 10.0 mi South 12.7 mph 24.2 mph N/A   Clear
3:53 PM 44.1 °F 38.1 °F 5.0 °F 20% 30.38 in 10.0 mi SSE 11.5 mph 24.2 mph N/A   Scattered Clouds
4:53 PM 43.0 °F 36.4 °F 7.0 °F 23% 30.39 in 10.0 mi South 12.7 mph 19.6 mph N/A   Overcast
5:53 PM 41.0 °F 33.9 °F 7.0 °F 25% 30.38 in 10.0 mi South 12.7 mph 18.4 mph N/A   Overcast
6:53 PM 39.9 °F 32.9 °F 8.1 °F 27% 30.37 in 10.0 mi South 11.5 mph 18.4 mph N/A   Overcast
7:44 PM 39.9 °F 32.9 °F 8.1 °F 27% 30.33 in 10.0 mi South 11.5 mph 20.7 mph N/A   Overcast
7:53 PM 39.9 °F 32.5 °F 8.1 °F 27% 30.37 in 10.0 mi South 12.7 mph 20.7 mph N/A   Overcast
8:01 PM 39.9 °F 33.4 °F 9.0 °F 28% 30.34 in 10.0 mi South 10.4 mph 18.4 mph N/A   Overcast
8:53 PM 39.0 °F 30.6 °F 7.0 °F 27% 30.37 in 10.0 mi South 15.0 mph 21.9 mph N/A   Overcast
9:21 PM 39.0 °F 31.8 °F 8.1 °F 28% 30.34 in 10.0 mi South 11.5 mph 17.3 mph N/A   Overcast
9:53 PM 39.0 °F 31.4 °F 10.0 °F 30% 30.35 in 10.0 mi South 12.7 mph 17.3 mph N/A   Overcast
10:53 PM 39.0 °F 31.8 °F 12.9 °F 34% 30.34 in 10.0 mi South 11.5 mph 19.6 mph N/A   Overcast
11:53 PM 39.0 °F 32.3 °F 18.0 °F 43% 30.32 in 10.0 mi South 10.4 mph - N/A   Overcast